Lexington Weather

Lexington, Massachusetts, USA

71°F
7/7/2022 9:48am 
  • Lexington Conditions: Mostly cloudy
  • Temperature: 70.9°F / 21.6°CWarmer 2.4°F than last hour.
  • Dew Point: 60.6°FIncreased 0.3°Fsince last hour.
  • Relative Humidity: 70%Decreased 5.0% since last hour.
  • Wind: Calm, 10-min avg: Calm, gust: 3 mph
  • Barometer: 30.00 in Steady
  • Visibility: 10 miles
  • Rain Today: 0.00 in
  •   

Regional Weather Roundup
for Boston, MA

        
000
ASUS41 KBOX 071310
RWRBOX

REGIONAL WEATHER ROUNDUP
NATIONAL WEATHER SERVICE BOSTON/NORTON MA
900 AM EDT THU JUL 07 2022

NOTE:  "FAIR" INDICATES FEW OR NO CLOUDS BELOW 12,000 FEET WITH NO 
SIGNIFICANT WEATHER AND/OR OBSTRUCTIONS TO VISIBILITY.

MAZALL-071400-
EASTERN MASSACHUSETTS
  
CITY           SKY/WX    TMP DP  RH WIND       PRES   REMARKS
BOSTON         MOSUNNY   71  56  58 E7        30.06R                  
BEVERLY        MOSUNNY   71  56  58 CALM      30.05R                  
LAWRENCE       MOSUNNY   73  57  57 CALM      30.08R                  
BEDFORD        PTSUNNY   71  57  61 CALM      30.05R                  
BLUE HILL      NOT AVBL                                               
NORWOOD        PTSUNNY   74  59  59 E3        30.05S                  
MARSHFIELD     MOSUNNY   72  57  60 VRB3      30.06S                  
PLYMOUTH       SUNNY     74  58  57 S6        30.06R                  
TAUNTON        SUNNY     75  59  57 VRB6      30.05S                  
NEW BEDFORD    SUNNY     74  59  59 SE6       30.05R                  
$$

MAZALL-071400-
CAPE COD AND THE ISLANDS
  
CITY           SKY/WX    TMP DP  RH WIND       PRES   REMARKS
FALMOUTH       SUNNY     72  61  68 S5        30.07F                  
HYANNIS        SUNNY     73  59  61 VRB3      30.05S                  
CHATHAM        MOSUNNY   72  58  61 S7        30.07S                  
PROVINCETOWN   PTSUNNY   73  62  68 S9        30.07R                  
NANTUCKET      SUNNY     71  60  68 SE8       30.06R                  
MARTHAS VNYRD  SUNNY     73  59  61 SE8       30.06R                  
$$
 
MAZALL-071400-
CENTRAL AND WESTERN MASSACHUSETTS
  
CITY           SKY/WX    TMP DP  RH WIND       PRES   REMARKS
WORCESTER      SUNNY     68  55  63 SE7       30.08R                  
FITCHBURG      PTSUNNY   70  54  56 VRB3      30.08R                  
ORANGE         SUNNY     69  57  65 CALM      30.09R                  
SPRINGFIELD    MOSUNNY   69  57  67 CALM      30.06R                  
WESTFIELD      SUNNY     71  58  63 N5        30.06S                  
NORTH ADAMS    SUNNY     70  58  65 CALM      30.07S                  
PITTSFIELD     MOSUNNY   70  57  63 E5        30.07R                  
$$
 
RIZALL-071400-
RHODE ISLAND
  
CITY           SKY/WX    TMP DP  RH WIND       PRES   REMARKS
PROVIDENCE     MOSUNNY   73  59  61 CALM      30.06R                  
NEWPORT        SUNNY     72  58  61 E6        30.06R                  
BLOCK ISLAND   SUNNY     69  64  84 E8        30.05R                  
SMITHFIELD     SUNNY     71  60  68 VRB3      30.07R                  
WESTERLY       SUNNY     75  60  59 E6        30.05R                  
$$
 
CTZALL-071400-
CONNECTICUT
  
CITY           SKY/WX    TMP DP  RH WIND       PRES   REMARKS
BRADLEY INTL   MOSUNNY   71  58  63 N5        30.06R                  
HARTFORD       SUNNY     73  60  63 N5        30.05S                  
BRIDGEPORT     MOSUNNY   73  61  65 NE10      30.03R                  
DANBURY        CLOUDY    72  60  66 E5        30.05S                  
GROTON         SUNNY     76  62  62 E6        30.03S                  
NEW HAVEN      PTSUNNY   77  62  59 E6        30.03S                  
CHESTER        FAIR      75  61  60 E5        30.05S                  
MERIDEN        SUNNY     74  58  57 N6        30.04S                  
WILLIMANTIC    SUNNY     71  60  68 CALM      30.06S                  
OXFORD         MOSUNNY   71  61  70 E5        30.07R                  
$$

MEZ002-015-021-024-NHZ003-005-008-011-012-014-VTZ005-008-071400-
NORTHERN NEW ENGLAND
  
CITY           SKY/WX    TMP DP  RH WIND       PRES   REMARKS
PORTLAND ME    MOSUNNY   70  54  56 VRB3      30.06R                  
BANGOR ME      PTSUNNY   64  53  67 CALM      30.07R                  
CONCORD NH     PTSUNNY   66  55  67 N3        30.08R                  
MANCHESTER NH  MOSUNNY   72  56  57 N5        30.05S                  
NASHUA NH      CLOUDY    72  56  57 CALM      30.07R                  
PORTSMOUTH NH  MOSUNNY   73  52  47 CALM      30.05R                  
JAFFREY NH     CLOUDY    66  57  72 CALM      30.09R                  
KEENE NH       PTSUNNY   61  57  87 CALM      30.09R                  
BURLINGTON VT  MOSUNNY   66  56  70 CALM      30.06F                  
MT. WASHINGTON MOSUNNY   43  37  81 N10         N/A                   
$$

NYZ052-076-071400-
EASTERN NEW YORK
  
CITY           SKY/WX    TMP DP  RH WIND       PRES   REMARKS
ALBANY         MOSUNNY   71  59  65 CALM      30.06R                  
NEW YORK CITY  PTSUNNY   71  62  73 NE14      30.01S                  
$$
 
ANZALL-071400-
MARINE OBSERVATIONS
  
STATION/POSITION TIME  TEMP    WIND        PRES    VSBY  WAVE
                       AIR SEA DIR/SP/G                  HT/PER
                 (UTC) (F)     (DEG/KT/KT) (MB)    (MI)  (FT/S)
BOSTON BUOY      NOT AVBL
BUZZARDS BAY     NOT AVBL
NANTUCKET SOUND  NOT AVBL
MASS BAY-STELLWA NOT AVBL
ISLE OF SHOALS   NOT AVBL
S OF BLOCK IS    NOT AVBL
$$

......................KEY.........................
  SKY/WX - SKY CONDITION/PRESENT WEATHER
  TMP    - TEMPERATURE IN FAHRENHEIT
  DWPT   - DEWPOINT IN FAHRENHEIT
  RH     - RELATIVE HUMIDITY IN PERCENT
  WIND   - DIRECTION AND SPEED IN MPH
  PRES   - MEAN SEA LEVEL PRESSURE IN INCHES OF HG
  WCI    - WIND CHILL INDEX
  VSB    - VISIBILITY IN MILES
  HX     - HEAT INDEX
  TC     - TEMPERATURE IN CELSIUS
  VRB    - VARIABLE WIND DIRECTION
  N/A    - NOT AVAILABLE
  
      

Other recent Regional Weather Roundups

Thu Jul 7, 8:10am

Thu Jul 7, 7:10am

Thu Jul 7, 6:10am

Thu Jul 7, 5:10am

Thu Jul 7, 4:10am

Thu Jul 7, 3:10am

Thu Jul 7, 2:10am

Thu Jul 7, 1:10am

Thu Jul 7, 12:10am

Wed Jul 6, 11:10pm

Wed Jul 6, 10:10pm

Wed Jul 6, 9:10pm

Wed Jul 6, 8:10pm

Wed Jul 6, 7:10pm

Wed Jul 6, 6:10pm

Wed Jul 6, 5:10pm

Wed Jul 6, 4:10pm

Wed Jul 6, 3:10pm

Wed Jul 6, 2:10pm

Wed Jul 6, 1:10pm

Wed Jul 6, 12:10pm

Wed Jul 6, 11:10am

Wed Jul 6, 10:10am

Wed Jul 6, 9:10am

Wed Jul 6, 8:10am

Wed Jul 6, 7:10am

Wed Jul 6, 6:10am

Wed Jul 6, 5:10am

Wed Jul 6, 4:10am

Wed Jul 6, 3:10am

Wed Jul 6, 2:10am

Wed Jul 6, 1:10am

Wed Jul 6, 12:10am

Tue Jul 5, 11:10pm

Tue Jul 5, 10:10pm

Tue Jul 5, 9:10pm

Tue Jul 5, 8:10pm

Tue Jul 5, 7:10pm

Tue Jul 5, 6:10pm

Tue Jul 5, 5:10pm

Tue Jul 5, 4:10pm

Tue Jul 5, 3:10pm

Tue Jul 5, 2:10pm

Tue Jul 5, 1:10pm

Tue Jul 5, 12:10pm

Tue Jul 5, 11:10am

Tue Jul 5, 10:10am

Tue Jul 5, 9:10am

Tue Jul 5, 8:10am

Tue Jul 5, 7:10am

Tue Jul 5, 6:10am

Tue Jul 5, 5:10am

Tue Jul 5, 4:10am

Tue Jul 5, 3:10am

Tue Jul 5, 2:10am

Tue Jul 5, 1:10am

Tue Jul 5, 12:10am

Mon Jul 4, 11:10pm

Mon Jul 4, 10:10pm

Mon Jul 4, 9:10pm

Mon Jul 4, 8:10pm

Mon Jul 4, 7:10pm

Mon Jul 4, 6:10pm

Mon Jul 4, 5:10pm

Mon Jul 4, 4:10pm

Mon Jul 4, 3:10pm

Mon Jul 4, 2:10pm

Mon Jul 4, 1:10pm

Mon Jul 4, 12:10pm

Mon Jul 4, 11:10am

Mon Jul 4, 10:10am

Mon Jul 4, 9:10am

Mon Jul 4, 8:10am

Mon Jul 4, 7:10am

Mon Jul 4, 6:10am

Mon Jul 4, 5:10am

Mon Jul 4, 4:10am

Mon Jul 4, 3:10am

Mon Jul 4, 2:10am

Mon Jul 4, 1:10am

Mon Jul 4, 12:10am

Sun Jul 3, 11:10pm

Sun Jul 3, 10:10pm

Sun Jul 3, 9:10pm

Sun Jul 3, 8:10pm

Sun Jul 3, 7:10pm

Sun Jul 3, 6:10pm

Sun Jul 3, 5:10pm

Sun Jul 3, 4:10pm

Sun Jul 3, 3:10pm

Sun Jul 3, 2:10pm

Sun Jul 3, 1:10pm

Sun Jul 3, 12:10pm

Sun Jul 3, 11:10am

Sun Jul 3, 10:10am

Sun Jul 3, 9:10am

Sun Jul 3, 8:10am

Sun Jul 3, 7:10am

Sun Jul 3, 6:10am

Sun Jul 3, 5:10am

Sun Jul 3, 4:10am

Sun Jul 3, 3:10am

Sun Jul 3, 2:10am

Sun Jul 3, 1:10am

Sun Jul 3, 12:10am

Sat Jul 2, 11:10pm

Sat Jul 2, 10:10pm

Sat Jul 2, 9:10pm

Sat Jul 2, 8:10pm

Sat Jul 2, 7:10pm

Sat Jul 2, 6:10pm

Sat Jul 2, 5:10pm

Sat Jul 2, 4:10pm

Sat Jul 2, 3:10pm

Sat Jul 2, 2:10pm

Sat Jul 2, 1:10pm

Sat Jul 2, 12:10pm

Sat Jul 2, 11:10am

Sat Jul 2, 10:10am

Sat Jul 2, 9:10am

Sat Jul 2, 8:10am

Sat Jul 2, 7:10am

Sat Jul 2, 6:10am

Sat Jul 2, 5:10am

Sat Jul 2, 4:10am

Sat Jul 2, 3:10am

Sat Jul 2, 2:10am

Sat Jul 2, 1:10am

Sat Jul 2, 12:10am

Fri Jul 1, 11:10pm

Fri Jul 1, 10:10pm

Fri Jul 1, 9:10pm

Fri Jul 1, 8:10pm

Fri Jul 1, 7:10pm

Fri Jul 1, 6:10pm

Fri Jul 1, 5:10pm

Fri Jul 1, 4:10pm

Fri Jul 1, 3:10pm

Fri Jul 1, 2:10pm

Fri Jul 1, 1:10pm

Fri Jul 1, 12:10pm

Fri Jul 1, 11:10am

Fri Jul 1, 10:10am

Fri Jul 1, 9:10am

Fri Jul 1, 8:10am

Fri Jul 1, 7:10am

Fri Jul 1, 6:10am

Fri Jul 1, 5:10am

Fri Jul 1, 4:10am

Fri Jul 1, 3:10am

Fri Jul 1, 2:10am

Fri Jul 1, 1:10am

Fri Jul 1, 12:10am

Thu Jun 30, 11:10pm

Thu Jun 30, 10:10pm

Thu Jun 30, 9:10pm

Thu Jun 30, 8:10pm

Thu Jun 30, 7:10pm

Thu Jun 30, 6:10pm

Thu Jun 30, 5:10pm

Thu Jun 30, 4:10pm

Thu Jun 30, 3:10pm

Thu Jun 30, 2:10pm

Thu Jun 30, 1:10pm

Thu Jun 30, 12:10pm

Thu Jun 30, 11:10am

Thu Jun 30, 10:10am

Thu Jun 30, 10:10am

Meta data:

ID: d4cdc200-9b67-4854-9415-5f173ac4a31f
Link: https://api.weather.gov/products/d4cdc200-9b67-4854-9415-5f173ac4a31f